GFSSW_925_temp_255.txt.gz
Temp
9 9 8 8 8 8 8 8 8 9 10 11 11 12 12 13 12 12 10 11 11 11 13 14 14 14 14 14 14 15 15 15 16 17 17 14 15 17 17 18 19 20 19 18 17
9 8 8 8 9 8 8 9 9 11 12 12 12 12 12 12 12 12 11 11 11 12 12 11 11 12 11 12 12 13 14 14 13 13 13 13 14 15 16 16 17 19 19 18 17
9 9 9 9 9 9 8 10 10 12 12 12 12 13 12 12 11 11 12 12 12 12 12 11 11 12 11 10 10 11 13 12 13 13 12 13 13 14 15 15 17 17 18 17 17
8 9 9 9 10 10 10 10 11 12 12 13 13 13 13 13 13 12 12 12 12 13 12 11 9 10 9 10 9 13 11 12 11 12 11 12 13 13 14 15 16 15 15 16 16
9 9 9 9 10 10 10 11 12 11 12 13 13 13 14 9 11 12 12 13 13 13 11 9 8 9 9 9 10 10 10 10 10 10 11 11 11 12 12 13 12 13 14 14 14
9 9 9 9 10 10 11 11 12 11 12 13 14 14 13 10 12 12 11 13 12 12 11 10 9 9 8 9 10 9 9 9 9 10 10 10 11 10 12 12 12 13 14 13 13
9 9 9 9 10 11 11 12 12 12 12 13 14 14 10 11 12 12 11 12 11 11 11 11 11 10 9 10 9 9 9 9 11 10 9 10 11 11 11 10 11 12 12 12 12
9 9 9 10 10 11 12 13 13 12 13 13 13 13 11 12 12 12 12 12 12 12 11 11 11 9 9 9 8 8 7 8 10 9 10 11 9 11 12 11 12 11 12 12 11
9 9 9 10 10 11 12 13 12 13 13 13 13 13 12 12 12 12 11 10 11 11 12 12 10 8 8 8 9 7 8 7 8 9 9 10 9 11 12 11 11 11 11 11 11
9 9 9 10 11 11 12 13 13 13 13 13 12 12 10 9 10 11 11 11 10 9 10 8 6 7 6 7 8 8 7 7 7 8 8 9 9 11 11 11 10 10 9 9 9
9 9 9 9 10 11 13 13 11 10 10 8 9 9 9 10 11 11 10 10 9 7 7 7 8 8 8 8 8 7 6 7 8 9 8 8 8 10 11 10 9 8 8 9 9
9 9 10 10 10 11 12 6 6 8 9 9 9 9 9 9 8 9 10 8 7 7 6 8 9 9 8 8 8 8 8 7 8 8 8 8 8 9 10 9 9 9 9 9 9
9 9 10 10 10 10 8 6 6 7 9 10 9 9 8 9 8 8 8 8 7 7 6 7 9 8 8 8 8 8 8 8 8 8 8 8 8 8 10 10 10 9 9 9 9
9 9 9 11 10 9 7 7 7 8 5 11 10 9 9 8 10 9 8 8 7 7 6 7 8 7 8 9 8 8 8 7 7 7 5 8 6 8 9 9 9 9 10 9 9
8 8 9 10 10 8 7 7 8 9 9 10 9 9 8 8 7 9 8 8 7 7 7 10 7 6 8 9 8 8 7 7 7 6 6 7 7 8 10 10 9 9 10 9 9
9 8 9 9 9 8 8 8 8 7 10 7 7 6 9 6 6 5 6 6 6 7 6 5 5 6 7 7 7 7 7 7 6 7 5 7 7 9 10 9 9 9 9 9 8
8 8 8 9 8 8 7 7 6 8 6 6 7 6 6 5 7 5 5 4 4 4 3 4 7 6 7 7 7 7 5 2 3 2 5 8 8 9 9 9 9 9 9 7 8
8 8 8 8 8 8 8 4 8 1 0 5 5 6 7 4 5 5 6 4 4 2 0 2 6 6 6 7 6 6 5 1 2 4 7 9 7 10 9 9 9 9 8 8 7
7 7 8 7 7 7 3 4 7 3 3 4 4 1 1 4 5 5 4 4 5 4 1 1 5 5 6 6 6 5 2 6 6 2 5 8 9 10 9 9 9 7 7 7 6
7 7 6 6 7 7 1 8 3 5 4 5 6 -0 2 -1 5 4 3 5 5 5 4 4 -0 5 5 5 6 5 6 3 1 3 4 7 9 10 10 8 7 5 5 4 4
8 5 5 6 7 2 3 3 3 5 6 6 2 -2 -1 1 -0 -2 1 5 5 5 5 3 2 5 4 6 5 2 1 2 5 5 5 7 9 10 8 7 5 4 4 3 2
6 5 4 5 3 -6 2 2 5 5 5 5 4 2 1 -1 -3 -1 2 4 5 5 2 4 1 -0 4 5 4 5 3 2 1 5 5 5 7 10 10 8 6 4 3 2 1
4 3 4 5 3 1 0 5 5 5 5 5 5 5 1 -1 4 -1 2 4 4 4 2 2 -2 -3 2 4 5 5 5 5 0 2 4 5 6 12 10 7 5 3 2 1 0
3 4 2 3 1 4 3 4 5 5 5 5 4 4 2 -0 1 -1 3 4 4 4 6 5 -1 -1 2 5 2 4 5 5 0 1 4 6 6 8 7 4 4 2 1 -0 -0
3 4 3 3 3 4 6 5 5 5 5 4 4 5 4 0 -0 -0 1 3 3 4 4 3 -3 -3 -1 1 1 2 2 2 1 3 3 5 5 6 6 3 3 1 0 -0 -1
3 3 2 2 4 5 6 3 6 4 4 5 4 5 3 3 5 2 1 1 2 3 3 2 -2 0 -2 1 2 2 3 3 3 3 4 4 5 8 5 3 2 1 -0 -1 -2
3 3 4 4 4 6 5 6 7 5 4 6 4 4 4 4 3 3 2 2 2 1 0 0 -2 -5 -4 -0 -0 1 4 6 3 3 3 4 7 6 3 3 2 0 -1 -1 -2

GFSSW_925_temp_258.txt.gz
Temp
9 8 9 9 8 8 8 8 9 10 10 11 12 12 13 13 13 13 12 11 11 12 13 13 14 14 16 18 18 18 21 21 21 21 21 18 18 20 20 21 21 21 21 20 18
9 9 9 10 9 10 9 9 10 11 11 12 12 12 12 13 13 13 11 11 12 12 13 13 15 16 17 17 17 19 19 20 17 17 17 17 17 18 18 20 20 22 22 21 19
9 9 9 10 10 10 10 11 10 11 12 12 12 13 13 12 14 13 12 12 13 12 12 11 13 16 16 16 15 16 19 16 17 16 15 16 17 18 17 18 21 20 18 18 18
9 9 9 10 10 10 11 11 11 11 12 13 13 13 13 13 16 12 12 12 13 13 12 13 14 15 16 16 14 17 15 15 15 14 14 15 16 16 17 18 18 17 17 17 18
9 9 9 9 10 10 11 11 12 12 12 13 13 13 14 14 13 12 12 13 13 13 12 13 14 14 15 14 14 15 14 14 14 14 14 14 15 15 15 17 17 17 17 18 17
9 9 10 10 10 10 11 12 12 12 13 13 13 14 14 14 12 11 12 13 13 12 12 13 12 13 13 13 14 13 13 14 13 14 14 13 15 14 18 16 17 17 17 17 17
9 9 10 10 10 11 11 12 12 12 13 13 13 14 14 13 12 11 12 12 12 11 13 11 12 14 12 13 12 12 14 15 14 14 14 14 16 16 18 17 16 16 16 16 16
9 9 9 10 10 11 12 13 12 13 13 13 13 13 14 12 12 11 11 12 11 11 11 11 11 13 12 11 12 13 14 16 17 13 13 13 16 17 18 16 15 15 16 15 15
9 9 10 10 11 12 12 13 13 13 13 13 13 13 14 12 12 11 10 10 11 11 11 11 12 12 13 13 15 14 15 14 14 14 12 13 13 16 16 16 15 15 15 14 14
9 9 10 10 11 13 13 13 13 13 13 14 13 14 13 11 10 11 10 10 11 11 13 13 13 14 14 15 14 12 13 13 13 14 12 12 14 16 16 15 15 14 13 14 14
9 9 10 10 11 12 13 13 14 14 11 11 10 10 11 10 11 11 9 10 11 12 13 11 15 13 12 11 11 11 11 11 14 13 11 13 13 15 16 15 14 14 13 14 14
9 9 10 10 11 11 12 9 7 8 11 9 10 10 9 8 12 12 10 12 12 13 11 14 13 11 10 10 10 11 11 13 13 12 11 13 13 15 15 14 14 14 14 13 13
9 9 9 10 11 11 9 6 7 8 13 11 10 10 10 10 10 11 10 10 11 12 10 13 11 10 10 11 11 13 12 12 10 11 13 12 15 15 15 13 13 13 13 13 13
9 9 10 11 10 9 7 7 7 8 13 12 12 10 10 9 11 9 8 10 10 11 10 11 9 9 10 11 10 11 11 10 10 10 11 11 12 15 15 15 13 13 14 14 13
9 9 9 11 10 8 8 8 8 8 16 11 11 9 9 11 8 10 7 10 10 10 10 11 10 9 11 10 9 11 10 10 9 9 8 11 9 15 17 15 14 13 13 13 12
9 9 9 10 9 8 8 8 8 13 16 10 9 9 11 9 9 8 9 9 8 9 9 10 7 8 10 9 9 9 10 10 9 9 9 11 11 14 15 15 14 12 12 11 11
9 8 9 9 9 9 8 9 11 14 9 10 9 9 9 9 9 8 9 9 10 11 10 10 10 8 8 10 10 10 9 11 11 11 12 11 11 13 15 14 12 12 11 10 9
9 8 8 9 8 9 9 10 14 8 9 6 7 8 11 7 8 8 9 9 8 7 8 10 13 9 8 9 8 8 8 9 9 11 11 12 9 14 13 13 12 12 9 8 8
8 8 8 8 8 8 10 10 12 10 7 7 7 9 8 7 8 9 8 8 7 6 9 9 11 8 7 8 8 8 9 9 7 8 7 11 12 14 13 12 11 9 7 7 5
8 7 6 6 7 8 6 11 9 8 6 7 11 5 11 7 9 9 7 7 7 7 6 6 8 8 8 7 7 7 8 8 8 8 9 11 12 14 12 9 7 7 7 6 4
7 6 4 5 7 7 9 8 6 6 7 9 8 5 7 7 6 7 7 6 7 6 6 6 6 10 7 8 9 8 7 7 7 8 8 9 12 12 11 9 8 6 6 5 3
5 5 4 5 6 1 7 5 6 6 6 6 7 6 7 4 5 6 8 7 7 7 5 6 5 6 9 7 6 7 6 7 7 8 8 7 9 12 12 10 8 5 5 3 2
4 3 3 4 7 6 4 6 7 6 6 6 7 7 3 4 8 4 5 6 6 6 5 5 4 7 10 7 7 7 7 7 5 5 6 6 10 14 12 9 6 5 4 2 1
3 4 2 3 3 6 6 6 6 6 6 6 6 6 4 3 3 4 5 5 5 6 6 6 3 5 11 10 6 7 7 7 4 4 6 7 9 9 9 6 4 4 2 1 0
4 4 4 4 4 5 6 7 6 6 6 6 6 7 7 4 3 4 5 5 5 5 5 5 3 1 2 4 5 4 5 5 4 4 5 9 5 7 7 5 4 3 2 1 -0
4 3 2 3 4 5 5 7 7 5 6 6 6 8 7 6 9 5 4 4 5 4 5 4 4 2 1 3 4 3 5 5 4 4 4 4 5 9 8 6 4 2 1 0 -1
3 3 6 4 4 4 7 7 7 7 6 7 7 7 6 7 6 4 4 5 6 4 3 3 2 1 6 2 3 5 7 7 6 5 5 7 10 7 6 5 4 1 1 -1 -2

GFSSW_925_temp_261.txt.gz
Temp
9 8 8 8 8 9 9 9 10 11 11 11 12 12 12 13 14 14 13 11 11 11 13 16 16 17 18 20 20 21 22 23 24 24 24 21 20 22 22 21 23 23 23 23 21
9 9 9 8 9 9 10 11 11 12 12 11 12 12 12 13 14 15 12 12 13 12 14 16 18 19 20 20 20 21 22 23 21 21 20 20 19 20 20 21 22 23 24 22 20
9 9 10 9 10 10 10 11 12 12 12 12 13 13 12 12 16 15 13 13 13 12 14 15 16 19 19 20 19 21 21 19 21 19 18 18 19 20 19 19 22 22 21 20 19
9 9 9 10 10 11 11 11 11 12 12 13 13 13 13 14 17 14 13 13 13 13 15 17 18 19 19 19 18 18 18 18 18 18 16 17 18 18 19 20 20 20 20 19 20
9 9 9 10 10 11 11 11 12 12 12 13 13 13 13 17 15 13 13 13 13 14 15 16 18 18 18 18 18 18 18 17 17 16 17 17 17 18 18 20 20 19 19 19 19
9 9 9 10 10 11 11 12 12 12 13 13 14 14 15 16 13 12 12 12 12 14 15 16 15 17 16 16 17 16 16 17 17 17 17 15 17 17 20 20 19 19 19 19 19
9 9 10 10 11 11 11 12 12 13 13 13 14 14 17 14 13 12 12 12 11 12 15 13 15 17 15 16 15 15 16 19 17 17 17 15 18 17 20 20 19 19 19 19 19
9 9 10 10 11 11 12 12 12 13 13 13 14 14 16 13 13 12 12 13 13 12 13 13 13 15 15 14 16 17 17 19 20 17 17 15 17 20 20 19 19 19 19 18 17
9 10 10 10 11 11 12 13 13 13 13 13 14 15 16 13 14 12 12 12 13 13 13 13 15 15 17 18 18 19 17 17 17 18 15 15 15 18 20 19 19 18 18 17 17
9 9 10 10 11 12 13 13 13 13 13 14 14 17 15 13 12 11 12 11 13 15 15 16 16 18 17 17 16 15 15 16 15 17 16 15 15 18 19 19 18 18 17 17 17
9 9 10 10 11 12 12 12 15 15 13 13 13 13 13 12 12 14 12 12 15 16 16 15 17 15 13 13 13 13 13 14 16 17 13 15 15 17 19 19 18 18 17 17 16
9 9 10 10 11 12 11 13 9 9 14 11 12 13 11 10 14 14 13 15 16 16 16 16 15 13 12 13 13 14 15 15 16 16 14 14 15 17 19 18 18 18 17 17 16
9 9 10 10 11 11 9 8 7 8 15 13 12 12 12 11 13 12 12 13 14 15 14 15 13 12 12 13 13 14 14 14 12 13 15 14 17 20 20 17 17 16 16 15 15
9 9 10 11 11 10 10 8 8 7 15 14 14 12 12 12 13 11 11 12 14 14 13 14 12 12 13 13 12 12 13 12 12 12 13 14 13 17 18 17 18 17 16 16 16
9 9 10 10 9 11 8 9 9 9 17 13 13 11 12 13 11 12 10 13 13 12 13 13 12 12 13 13 12 12 12 11 12 11 12 14 12 16 19 18 18 17 17 16 15
9 9 9 9 10 9 9 9 8 12 16 11 12 12 13 12 12 12 12 12 11 12 12 12 10 11 12 11 11 11 13 13 12 12 11 14 13 15 17 16 16 16 15 14 13
9 9 9 9 10 9 9 11 12 14 10 11 12 12 12 12 12 12 12 12 13 14 14 14 12 11 10 11 12 12 11 13 13 13 14 13 13 14 16 16 14 14 13 12 11
9 8 8 8 9 9 9 11 14 11 10 9 10 11 13 10 11 11 12 13 11 11 13 13 14 12 10 10 10 10 9 10 10 13 12 13 11 15 16 14 14 13 11 10 10
8 8 7 8 8 8 12 9 12 11 9 9 9 9 9 10 10 12 11 12 10 9 11 13 14 10 9 9 10 9 10 10 8 10 9 13 15 17 15 15 14 11 10 9 8
7 7 6 6 7 8 7 11 9 10 9 10 12 8 11 9 11 12 11 10 9 9 9 9 9 11 9 9 9 9 9 9 9 9 10 13 14 15 14 14 12 10 9 7 7
7 6 4 6 7 9 9 9 7 9 9 11 10 8 9 9 9 10 10 9 10 8 9 9 8 11 9 10 11 9 8 7 8 9 10 10 13 15 14 14 10 9 7 5 4
5 6 3 5 6 5 7 7 8 8 8 9 10 9 9 7 8 9 11 10 10 9 7 8 7 8 12 10 9 9 8 9 8 10 10 9 9 15 15 14 10 8 5 4 3
4 3 3 4 6 6 5 7 8 8 8 9 9 10 7 7 9 8 9 8 8 8 6 6 7 9 11 9 8 8 9 9 7 6 6 8 12 17 15 12 9 6 4 3 2
4 5 2 3 3 6 6 7 7 8 9 9 8 8 7 6 6 7 8 7 7 8 6 7 6 7 12 12 9 9 10 9 6 6 8 9 9 11 10 7 7 5 4 2 1
5 5 4 4 4 6 7 8 8 7 8 8 7 9 9 7 6 6 8 6 6 7 7 7 5 5 4 6 7 7 7 8 7 6 6 10 6 6 7 6 5 4 3 2 0
5 4 2 4 6 6 6 6 8 7 6 8 8 9 10 8 10 7 6 7 7 6 6 7 6 5 3 6 6 5 7 7 6 6 6 6 5 9 10 7 5 4 2 1 -0
3 3 6 4 5 6 7 7 8 7 7 8 9 10 9 9 8 8 8 8 8 6 5 5 5 4 8 5 6 7 9 9 7 6 5 6 9 8 7 5 4 2 1 0 -1

GFSSW_925_temp_264.txt.gz
Temp
9 8 8 8 8 8 9 9 9 12 12 12 12 12 12 14 15 14 12 11 11 12 14 17 17 18 19 20 20 21 19 19 21 21 22 20 19 20 21 20 21 22 22 21 20
8 8 9 8 8 8 8 9 10 12 12 12 12 12 13 14 14 15 12 13 13 13 14 16 19 19 19 20 19 19 18 20 21 19 18 18 18 18 19 19 19 20 22 21 20
8 8 9 9 9 10 9 11 12 12 12 13 13 13 13 13 15 15 13 13 14 14 15 16 17 19 19 20 19 19 19 19 19 17 17 17 17 18 17 17 19 18 18 18 18
9 9 10 10 10 10 11 11 12 12 12 13 13 13 15 14 16 14 13 14 14 15 17 17 18 19 19 19 19 17 19 18 18 17 16 16 17 16 16 17 18 18 18 18 17
9 9 10 10 10 10 11 11 12 12 13 13 13 13 14 16 14 13 13 13 14 16 16 17 17 17 19 18 18 18 18 18 18 17 16 16 15 15 16 17 18 19 18 17 17
9 9 10 10 10 10 11 11 12 13 13 13 14 14 15 16 13 13 13 13 13 14 15 15 15 15 17 17 16 16 16 16 17 17 17 16 15 15 16 19 19 18 17 17 17
9 9 10 10 10 11 11 12 12 13 13 13 14 14 16 14 14 13 13 13 13 13 15 14 15 16 15 16 15 16 15 17 16 17 16 15 14 16 16 18 18 17 17 17 18
9 9 10 10 10 11 12 13 13 13 13 14 14 14 15 14 13 13 13 14 13 13 13 14 14 15 15 15 15 16 17 16 17 17 15 15 13 16 17 17 17 17 16 17 18
9 9 10 10 10 11 12 13 13 13 14 14 14 15 15 14 14 13 13 12 13 14 14 14 15 15 15 15 16 17 14 15 15 17 16 15 13 15 16 17 17 17 17 17 17
9 9 10 10 10 11 13 13 14 14 14 14 14 15 15 14 13 13 13 12 14 15 15 16 16 16 13 12 12 12 12 13 13 16 15 13 13 15 16 16 16 17 18 17 15
9 9 10 10 11 11 13 13 13 13 13 12 13 14 14 13 13 14 12 13 15 16 15 15 14 12 12 12 13 12 12 12 14 16 12 13 13 14 15 16 17 17 16 15 16
10 9 10 10 11 12 12 13 9 8 13 12 13 14 12 12 14 14 13 15 17 15 16 14 12 12 13 13 13 13 12 11 13 13 12 12 13 14 15 16 17 16 15 15 15
10 10 10 10 11 11 10 8 8 8 13 13 12 13 12 12 13 12 12 13 14 15 14 13 12 13 13 13 12 12 12 11 10 11 12 12 12 16 17 16 17 16 15 15 14
10 10 10 10 11 11 10 8 9 9 12 13 13 12 13 13 13 12 11 11 14 14 13 13 12 12 13 13 12 10 12 11 10 10 8 12 7 13 17 17 17 15 14 14 14
9 10 10 10 10 11 9 9 9 9 15 13 13 12 12 13 12 12 11 12 13 13 12 12 12 12 13 12 12 10 11 10 10 10 9 12 8 11 15 15 15 13 13 12 12
9 9 10 9 9 9 9 9 9 11 15 10 12 13 13 13 13 13 13 12 11 12 13 11 10 11 11 11 11 11 10 11 12 10 6 12 11 11 14 14 13 13 12 11 11
9 9 9 9 9 9 9 9 11 13 10 11 11 13 13 12 13 12 13 11 10 11 12 12 11 10 10 11 11 10 8 6 7 8 8 13 11 11 14 13 13 12 11 10 9
8 8 9 9 9 9 9 9 12 10 10 9 11 12 12 10 11 12 13 12 10 10 10 10 10 11 10 10 9 9 8 4 5 6 8 11 8 12 15 15 14 11 10 9 8
8 7 7 7 8 9 9 10 12 10 8 9 9 9 8 10 11 12 11 11 10 9 9 9 12 9 10 10 9 9 7 9 4 4 5 8 12 14 14 14 11 10 9 7 6
7 5 5 6 8 9 6 11 9 10 10 10 11 8 10 7 10 11 11 11 9 9 9 9 7 10 8 9 9 8 9 5 5 3 4 8 10 11 12 12 9 8 8 6 5
6 6 4 6 8 6 7 9 7 9 10 11 9 7 9 7 9 9 9 9 10 8 9 9 7 9 9 8 8 5 5 4 6 6 3 4 7 14 12 11 8 7 7 5 3
5 6 3 5 5 4 7 7 9 8 8 9 10 9 8 7 7 9 10 10 10 8 6 7 6 5 11 9 9 8 7 6 2 5 6 5 6 12 12 11 8 7 6 4 2
5 3 3 4 6 5 5 7 8 8 8 9 8 10 7 6 8 7 9 8 9 8 5 6 4 3 8 7 8 7 8 8 2 2 3 1 6 14 12 9 7 6 5 3 2
4 4 2 2 3 6 6 7 7 9 8 9 8 8 7 5 6 5 8 7 7 8 7 7 5 3 7 9 7 7 8 7 2 0 1 4 5 9 8 5 6 5 3 3 1
5 5 4 4 3 5 7 7 7 6 7 8 7 8 8 5 5 5 8 5 6 7 6 6 2 2 3 4 4 5 5 6 4 3 2 7 2 6 5 5 2 4 2 2 1
5 4 3 4 5 5 6 6 7 6 5 6 7 8 8 6 9 6 6 6 5 5 5 6 3 4 1 4 5 4 5 5 5 5 5 5 5 8 8 5 4 3 2 1 0
4 4 7 5 5 6 6 7 7 7 6 8 7 8 7 8 6 7 7 7 6 4 4 4 3 1 3 5 4 3 6 6 3 3 2 2 5 4 5 3 3 2 1 1 -1